Hourly Data Report for September 26, 2017

All times are specified in Local Standard Time (LST). Add 1 hour to adjust for Daylight Saving Time where and when it is observed.

WOODSTOCK NEWBRIDGE
NEW BRUNSWICK

46°09'08.000" N
67°32'34.000" W
154.00 m
8105603
71606
EWD

Download Data

Hourly Data (September 2017)
Hourly Data Report for September 26, 2017
Temp Definition
°C
Dew Point Temp Definition
°C
Rel Hum Definition
%
Wind Dir Definition
10's deg

Wind Spd Definition
km/h
Visibility Definition
km
Stn Press Definition
kPa
Hmdx Definition


Wind Chill Definition


Weather Definition


TIME
00:00 21.9 19.2 84 18 7   99.71 29   LegendNANA
01:00 21.6 19.5 87 18 7   99.71 29   LegendNANA
02:00 20.6 19.0 91 18 4   99.71 27   LegendNANA
03:00 18.5 17.7 95 18 3   99.72     LegendNANA
04:00 18.8 18.2 96 18 4   99.71     LegendNANA
05:00 19.8 18.9 95 18 6   99.70     LegendNANA
06:00 19.7 18.8 94 19 4   99.73     LegendNANA
07:00 19.3 18.4 95 19 6   99.76     LegendNANA
08:00 19.9 18.7 93 17 4   99.75     LegendNANA
09:00 21.5 18.8 85 19 3   99.76 28   LegendNANA
10:00 24.7 19.0 71 22 10   99.72 31   LegendNANA
11:00 27.5 18.7 59 24 7   99.69 34   LegendNANA
12:00 29.8 19.0 52 23 10   99.65 37   LegendNANA
13:00 31.2 17.1 43 26 11   99.60 37   LegendNANA
14:00 31.5 15.0 37 29 12   99.59 35   LegendNANA
15:00 31.7 15.9 39 25 13   99.59 36   LegendNANA
16:00 31.3 15.8 39 26 8   99.56 36   LegendNANA
17:00 30.7 15.2 39 31 4   99.58 35   LegendNANA
18:00 26.2 16.2 54 0 1   99.61 31   LegendNANA
19:00 25.0 17.3 63 35 2   99.61 30   LegendNANA
20:00 24.7 17.6 65 0 1   99.66 30   LegendNANA
21:00 22.9 16.1 65 8 17   99.71 28   LegendNANA
22:00 18.7 12.9 69 9 15   99.78     LegendNANA
23:00 16.9 11.5 71 9 3   99.83     LegendNANA

Notes on Data Quality.

Legend

  • E = Estimated
  • M = Missing
  • NA = Not Available
  • ‡ = Partner data that is not subject to review by the National Climate Archives
Date modified: